Погода в Галкине

Россия / Владимирская область     56°06′51″N   41°50′01″E
темп.,
°C
ветер,
м/с
пор.,
м/с
влажн.,
%
обл.,
%
осадки,
мм/ч
давл.,
гПа
погр.,
м
25 июля, вс
вс2500:00+14сз1159100 0.0 101714
03:00+14зсз2259100 0.0 101844
06:00+13зсз136592 0.0 101994
09:00+19зсз23434 0.0 1020934
12:00+22сз343266 0.0 10202673
15:00+21зсз343556 0.0 10201732
18:00+21з23466 0.0 1020414
21:00+17зюз235480 0.0 102156
26 июля, пн
пн2600:00+15зюз236162 0.0 102259
03:00+15з246582 0.0 102283
06:00+15зсз246693 0.0 1023134
09:00+20з344893 0.0 1023530
12:00+23з463724 0.0 10232119
15:00+23з354260 0.0 10211109
18:00+23зсз36432 0.0 10211058
21:00+19зюз225796 0.0 102138
27 июля, вт
вт2700:00+16з256698 0.0 102184
03:00+18з395894 0.0 1021228
06:00+17зсз27735 0.0 1021197
09:00+23ссз24495 0.0 1021657
12:00+27сз353655 0.0 10202587
15:00+25сз254478 0.0 10191384
18:00+23сз365481 0.0 1019415
21:00+17всв128482 0.2 101937
28 июля, ср
ср2800:00+15ю239388 0.7 101855
03:00+14з009217 0.8 101810
06:00+17ююв11865 0.0 101734
09:00+23ююз11605 0.0 1016506
12:00+27юз24400 0.0 10151642
15:00+27зюз3544100 0.0 10131458
18:00+22ююз2462100 0.1 101297
21:00+18сз1287100 1.1 101121
29 июля, чт
чт2900:00+17зсз2796100 1.4 1011196
03:00+17юв3997100 8.5 1009407
06:00+16юв3998100 1.4 1007488
09:00+17ююв3697100 2.0 1006445
12:00+19юз2391100 0.1 1005489
15:00+18з379537 1.6 1005446
18:00+20з389397 1.8 1004828
21:00+17з399810 2.5 1005312